Simultaneous Nadir Overpasses (SNOs) Predictions

Prediction of SNOs between METOP-A and TERRA Satellite Orbit:

Table of predicted SNOs for the next 14.0 days since TLE Epoch: 9/26/2014
Index Date (METOP-A) Time (METOP-A) Lat,Lon (METOP-A) SZA (METOP-A ) Date (TERRA) Time (TERRA) Lat,Lon (TERRA) SZA (TERRA ) Distance(km) Time Diff (sec)
1 09/28/2014 06:16:15 81.29, 132.76 86.28 09/28/2014 06:16:28 81.29, 132.89 86.30 2.28 13
2 09/28/2014 07:06:54 -81.29, -59.39 93.65 09/28/2014 07:05:55 -81.29, -59.49 93.69 1.75 59
3 10/01/2014 01:50:37 81.29,-160.84 87.39 10/01/2014 01:50:56 81.28,-160.98 87.37 2.65 19
4 10/01/2014 02:41:16 -81.29, 7.03 92.54 10/01/2014 02:40:22 -81.30, 7.09 92.55 1.27 54
5 10/03/2014 21:24:59 81.29, -94.49 88.49 10/03/2014 21:25:29 81.30, -94.30 88.53 3.30 30
6 10/03/2014 22:15:38 -81.29, 73.40 91.43 10/03/2014 22:14:56 -81.30, 73.46 91.44 1.43 42
7 10/06/2014 16:59:20 81.28, -28.19 89.57 10/06/2014 17:00:09 81.28, -28.21 89.59 0.33 49
8 10/06/2014 17:49:59 -81.29, 139.71 90.35 10/06/2014 17:49:36 -81.29, 139.62 90.37 1.49 23
9 10/09/2014 12:33:50 81.22, 34.94 90.25 10/09/2014 12:35:04 81.10, 35.09 90.22 13.65 74
10 10/09/2014 13:24:21 -81.29,-154.03 89.27 10/09/2014 13:24:23 -81.29,-154.05 89.27 0.61 2




NCC Satellite Simultaneous Nadir Overpasses (SNOs) Prediction Service
